User: anonymous   Login
Location: Beaurevoir
(49.9971°N, 3.3085°E)
Time: 13:53:50
(UTC+00:00)
Language:

Cosmos 1242 Rocket - Orbit

View from above orbital plane
View from above orbital plane
View from above satellite
View from above satellite

Ground track
Ground track

The orbit data is extracted from the following two-line orbital elements,

1 12155U 81008B   24199.14646005  .00200457  13284-4  69427-3 0  9993
2 12155  81.1390 193.7247 0007238  94.3265 265.8830 15.89340606390084
Epoch (UTC): 17 July 2024 03:30:54
Eccentricity: 0.0007238
inclination: 81.1390°
perigee height: 299 km
apogee height: 309 km
right ascension of ascending node: 193.7247°
argument of perigee: 94.3265°
revolutions per day: 15.89340606
mean anomaly at epoch: 265.8830°
orbit number at epoch: 39008

The dashed part of the orbit path shows where the satellite is in the earth's shadow,  

DLR